Location: Archemont
(49.1579°N, 1.7598°E)
Time: 10:07:59
(UTC+00:00)

A-11 Canister half - Visible Passes

Search period start: 17 April 2024 00:00
Search period end: 27 April 2024 00:00
Orbit: 1526 x 1682 km, 47.3° (Epoch: 16 April)

Date Brightness Start Highest point End Pass type
(mag) Time Alt. Az. Time Alt. Az. Time Alt. Az.
22 Apr 10.6 03:52:09 10° S 04:00:02 28° SE 04:08:02 10° E visible
23 Apr 10.6 03:30:40 10° S 03:38:22 26° SE 03:46:10 10° E visible
24 Apr 10.5 03:09:12 10° S 03:16:40 25° SE 03:24:16 10° E visible
25 Apr 10.5 02:47:45 10° S 02:55:00 24° SE 03:02:22 10° E visible
26 Apr 10.5 02:26:20 10° S 02:33:20 22° SE 02:40:26 10° E visible
